Regional Weather Roundup
Issued by NWS Northern Indiana

Home | Current Version | Previous Version | Text Only | Print | Product List | Glossary Off
Versions: 1 2 3 4 5 6 7 8 9 10 11 12 13 14 15 16 17 18 19 20 21 22 23 24 25 26 27 28 29 30 31 32 33 34 35 36 37 38 39 40 41 42 43 44 45 46 47 48 49 50

000
ASUS43 KIWX 292100
RWRIWX

KIWX WEATHER ROUNDUP
NATIONAL WEATHER SERVICE NORTHERN INDIANA
500 PM EDT SAT APR 29 2017

NOTE: "FAIR" INDICATES FEW OR NO CLOUDS BELOW 12,000 FEET WITH NO
SIGNIFICANT WEATHER AND/OR OBSTRUCTIONS TO VISIBILITY.

* THESE STATIONS ARE NOT UNDER NWS QUALITY CONTROL. THEY ALSO MAY NOT
  REPORT WEATHER SUCH AS PRECIPITATION OR FOG.

INZ001>027-292200-
NORTHERN INDIANA

CITY           SKY/WX    TMP DP  RH WIND       PRES   REMARKS
GARY*          DRIZZLE   43  41  93 N17       30.11F
SOUTH BEND     CLOUDY    51  47  86 E7        30.13F
ELKHART*       CLOUDY    52  46  82 NE15      30.12S
GOSHEN         CLOUDY    51  45  79 E15G21    30.12F
MONTICELLO*    CLOUDY    55  52  91 NE12G20   30.02F
ANGOLA*        CLOUDY    48  45  87 E12       30.15F
FORT WAYNE     CLOUDY    50  46  86 E17       30.11S

$$
INZ028>050-292200-
CENTRAL INDIANA

CITY           SKY/WX    TMP DP  RH WIND       PRES   REMARKS
LAFAYETTE      CLOUDY    58  57  97 E13       29.99F
KOKOMO*        CLOUDY    53  51  93 E18       30.05F
MUNCIE*        CLOUDY    54  52  93 NE13      30.05F FOG
INDIANAPOLIS   CLOUDY    74  62  66 E13       29.97F

$$
MIZ043>046-050>051-056>058-064>065-071>073-077>080-292200-
SOUTHWEST LOWER MICHIGAN

CITY           SKY/WX    TMP DP  RH WIND       PRES   REMARKS
BATTLE CREEK   RAIN      51  42  71 SE10G17   30.18R
BENTON HARBOR  LGT RAIN  50  45  83 NE6       30.13F
COLDWATER*     CLOUDY    51  45  80 E8        30.15F
HILLSDALE*     CLOUDY    46  41  81 E6        30.17R
HOLLAND        LGT RAIN  54  39  57 E10       30.16R
GRAND RAPIDS   CLOUDY    53  37  54 NE20      30.10F
KALAMAZOO      RAIN      50  43  77 CALM      30.18R
STURGIS*       CLOUDY    51  45  79 E13       30.14F
THREE RIVERS*  CLOUDY    52  43  71 E8        30.15S

$$
OHZ001>008-015>018-024>025-292200-
NORTHWEST OHIO

CITY           SKY/WX    TMP DP  RH WIND       PRES   REMARKS
DEFIANCE       CLOUDY    46  43  89 E14       30.16R
FINDLAY        CLOUDY    50  44  80 NE13      30.13F
TOLEDO EXPRESS CLOUDY    46  43  89 NE16      30.17S
TOLEDO METCALF CLOUDY    47  42  83 NE14G22   30.18F
LIMA           CLOUDY    50  49  96 NE12      30.11S

$$
AND FOR LAKE MICHIGAN COASTAL AND OPEN LAKE BUOY OBSERVATIONS

STATION/POSITION TEMP    WIND        PRES    VSBY  WAVE
                 AIR SEA DIR/SP/G                  HT/PER
                 (F)     (DEG/KT/KT) (MB)    (MI)  (FT/S)
CALUMET HARBOR    41     360/ 18/ 26 1019.8F
MICHIGAN CITY     42      20/ 23/ 25   N/A
BURNS HARBOR      43      40/ 24/ 25 1019.3F
SOUTH LAKE BUOY   39 41   10/ 21/ 25 1021.6          6/ 6
4 MI NW BRIDGMAN  45 49   50/ 14/ 17 1021.4F         5/ 5
MICHIGAN CITY     42 47                N/A           8/ 6

$$
&&



USA.gov is the U.S. government's official web portal to all federal, state and local government web resources and services.